Liberal, Kansas, United States (67901)
Lat: 37.04N, Lon: 100.92W
Wx Zone: KSZ086
Local Info
Past Weather Observations for Saturday, January 24, 2015

NOTE: This archive is for the closest National Weather Service station to Liberal. Information may differ from the station used for current weather conditions.

Click here for Long-term Archive

Time Weather Temperature Dewpoint Humidity Pressure Winds Precip Visibility
23:55
Partly Cloudy
43°F / 6°C 28°F / -2°C 57% 30.06 in
(1018 mb)
NW 16.1 mph
(NW 26 kph)
- 10SM
23:35
Mostly Cloudy
45°F / 7°C 28°F / -2°C 53% 30.06 in
(1018 mb)
NW 10.4 mph
(NW 17 kph)
- 10SM
23:15
Mostly Cloudy
45°F / 7°C 30°F / -1°C 57% 30.04 in
(1017 mb)
NNW 11.5 mph
(NNW 19 kph)
- 10SM
22:55
Partly Cloudy
43°F / 6°C 28°F / -2°C 57% 30.04 in
(1017 mb)
NNW 10.4 mph
(NNW 17 kph)
- 10SM
22:35
Clear
43°F / 6°C 27°F / -3°C 53% 30.04 in
(1017 mb)
NW 8.1 mph
(NW 13 kph)
- 10SM
22:15
Clear
45°F / 7°C 27°F / -3°C 49% 30.01 in
(1016 mb)
NW 6.9 mph
(NW 11 kph)
- 10SM
21:55
Partly Cloudy
46°F / 8°C 28°F / -2°C 50% 30.01 in
(1016 mb)
NW 10.4 mph
(NW 17 kph)
- 10SM
21:35
Clear
46°F / 8°C 28°F / -2°C 50% 30.01 in
(1016 mb)
NNW 12.7 mph
(NNW 20 kph)
- 10SM
21:15
Partly Cloudy
48°F / 9°C 28°F / -2°C 46% 30.01 in
(1016 mb)
NNW 10.4 mph
(NNW 17 kph)
- 10SM
20:55
Mostly Cloudy
48°F / 9°C 28°F / -2°C 46% 30.01 in
(1016 mb)
NNW 11.5 mph
(NNW 19 kph)
- 10SM
20:35
Overcast
48°F / 9°C 28°F / -2°C 46% 30.01 in
(1016 mb)
NNW 12.7 mph
(NNW 20 kph)
- 10SM
20:15
Overcast
46°F / 8°C 28°F / -2°C 50% 29.98 in
(1015 mb)
NW 11.5 mph
(NW 19 kph)
- 10SM
19:55
Partly Cloudy
43°F / 6°C 28°F / -2°C 57% 29.98 in
(1015 mb)
NW 9.2 mph
(NW 15 kph)
- 10SM
19:35
Clear
43°F / 6°C 27°F / -3°C 53% 29.98 in
(1015 mb)
NW 8.1 mph
(NW 13 kph)
- 10SM
19:15
Clear
43°F / 6°C 27°F / -3°C 53% 29.98 in
(1015 mb)
NNW 9.2 mph
(NNW 15 kph)
- 10SM
18:55
Clear
43°F / 6°C 25°F / -4°C 49% 29.95 in
(1014 mb)
NW 6.9 mph
(NW 11 kph)
- 10SM
18:35
Clear
45°F / 7°C 28°F / -2°C 53% 29.95 in
(1014 mb)
W 8.1 mph
(W 13 kph)
- 10SM
18:15
Clear
45°F / 7°C 27°F / -3°C 49% 29.95 in
(1014 mb)
SSW 8.1 mph
(SSW 13 kph)
- 10SM
17:55
Clear
48°F / 9°C 28°F / -2°C 46% 29.92 in
(1013 mb)
SW 8.1 mph
(SW 13 kph)
- 10SM
17:35
Clear
54°F / 12°C 28°F / -2°C 38% 29.92 in
(1013 mb)
SW 9.2 mph
(SW 15 kph)
- 10SM
17:15
Clear
55°F / 13°C 28°F / -2°C 36% 29.95 in
(1014 mb)
SW 9.2 mph
(SW 15 kph)
- 10SM
16:55
Clear
57°F / 14°C 27°F / -3°C 31% 29.95 in
(1014 mb)
SSW 9.2 mph
(SSW 15 kph)
- 10SM
16:35
Clear
57°F / 14°C 27°F / -3°C 31% 29.92 in
(1013 mb)
SW 12.7 mph
(SW 20 kph)
- 10SM
16:15
Clear
57°F / 14°C 28°F / -2°C 33% 29.95 in
(1014 mb)
SW 15 mph
(SW 24 kph)
- 10SM
15:55
Clear
55°F / 13°C 27°F / -3°C 33% 29.95 in
(1014 mb)
SW 16.1 mph
(SW 26 kph)
- 10SM
15:35
Clear
57°F / 14°C 27°F / -3°C 31% 29.95 in
(1014 mb)
SSW 18.4 mph
(SSW 30 kph)
- 10SM
15:15
Clear
57°F / 14°C 27°F / -3°C 31% 29.95 in
(1014 mb)
SW 20.7 mph
(SW 33 kph)
- 10SM
14:55
Clear
57°F / 14°C 27°F / -3°C 31% 29.98 in
(1015 mb)
SSW 19.6 mph
(SSW 32 kph)
- 10SM
14:35
Clear
57°F / 14°C 27°F / -3°C 31% 29.98 in
(1015 mb)
SSW 24.2 mph
(SSW 39 kph)
- 10SM
14:15
Clear
57°F / 14°C 27°F / -3°C 31% 29.98 in
(1015 mb)
SW 23 mph
(SW 37 kph)
- 10SM
13:55
Clear
57°F / 14°C 27°F / -3°C 31% 30.01 in
(1016 mb)
SW 20.7 mph
(SW 33 kph)
- 10SM
13:35
Clear
57°F / 14°C 28°F / -2°C 33% 30.01 in
(1016 mb)
SW 24.2 mph
(SW 39 kph)
- 10SM
13:15
Clear
57°F / 14°C 28°F / -2°C 33% 30.04 in
(1017 mb)
SSW 21.9 mph
(SSW 35 kph)
- 10SM
12:55
Clear
57°F / 14°C 28°F / -2°C 33% 30.06 in
(1018 mb)
SSW 20.7 mph
(SSW 33 kph)
- 10SM
12:35
Clear
57°F / 14°C 28°F / -2°C 33% 30.06 in
(1018 mb)
SW 23 mph
(SW 37 kph)
- 10SM
12:15
Clear
55°F / 13°C 30°F / -1°C 38% 30.09 in
(1019 mb)
SW 18.4 mph
(SW 30 kph)
- 10SM
11:55
Clear
55°F / 13°C 32°F / 0°C 41% 30.12 in
(1020 mb)
SSW 13.8 mph
(SSW 22 kph)
- 10SM
11:35
Clear
54°F / 12°C 30°F / -1°C 41% 30.15 in
(1021 mb)
SSW 11.5 mph
(SSW 19 kph)
- 10SM
11:15
Clear
52°F / 11°C 32°F / 0°C 47% 30.15 in
(1021 mb)
SSW 10.4 mph
(SSW 17 kph)
- 10SM
10:55
Clear
48°F / 9°C 32°F / 0°C 54% 30.15 in
(1021 mb)
SSW 10.4 mph
(SSW 17 kph)
- 10SM
10:35
Clear
46°F / 8°C 32°F / 0°C 57% 30.15 in
(1021 mb)
W 9.2 mph
(W 15 kph)
- 10SM
10:15
Clear
45°F / 7°C 30°F / -1°C 57% 30.15 in
(1021 mb)
W 9.2 mph
(W 15 kph)
- 10SM
09:55
Clear
43°F / 6°C 28°F / -2°C 57% 30.15 in
(1021 mb)
W 10.4 mph
(W 17 kph)
- 10SM
09:35
Clear
39°F / 4°C 28°F / -2°C 65% 30.15 in
(1021 mb)
W 12.7 mph
(W 20 kph)
- 10SM
09:15
Clear
36°F / 2°C 27°F / -3°C 70% 30.15 in
(1021 mb)
W 11.5 mph
(W 19 kph)
- 10SM
08:55
Clear
34°F / 1°C 25°F / -4°C 70% 30.15 in
(1021 mb)
W 11.5 mph
(W 19 kph)
- 10SM
08:35
Clear
32°F / 0°C 25°F / -4°C 75% 30.15 in
(1021 mb)
W 12.7 mph
(W 20 kph)
- 10SM
08:15
Clear
30°F / -1°C 23°F / -5°C 75% 30.18 in
(1022 mb)
W 11.5 mph
(W 19 kph)
- 10SM
07:55
Clear
28°F / -2°C 23°F / -5°C 80% 30.18 in
(1022 mb)
W 9.2 mph
(W 15 kph)
- 10SM
07:35
Clear
28°F / -2°C 21°F / -6°C 74% 30.18 in
(1022 mb)
W 6.9 mph
(W 11 kph)
- 10SM
07:15
Clear
30°F / -1°C 23°F / -5°C 75% 30.18 in
(1022 mb)
NW 8.1 mph
(NW 13 kph)
- 10SM
06:55
Clear
32°F / 0°C 25°F / -4°C 75% 30.18 in
(1022 mb)
WNW 9.2 mph
(WNW 15 kph)
- 10SM
06:35
Clear
32°F / 0°C 25°F / -4°C 75% 30.15 in
(1021 mb)
W 10.4 mph
(W 17 kph)
- 10SM
06:15
Clear
32°F / 0°C 25°F / -4°C 75% 30.15 in
(1021 mb)
W 10.4 mph
(W 17 kph)
- 10SM
05:55
Clear
32°F / 0°C 25°F / -4°C 75% 30.15 in
(1021 mb)
W 9.2 mph
(W 15 kph)
- 10SM
05:35
Clear
30°F / -1°C 25°F / -4°C 80% 30.18 in
(1022 mb)
W 10.4 mph
(W 17 kph)
- 10SM
05:15
Clear
30°F / -1°C 23°F / -5°C 75% 30.18 in
(1022 mb)
W 10.4 mph
(W 17 kph)
- 10SM
04:55
Clear
30°F / -1°C 25°F / -4°C 80% 30.18 in
(1022 mb)
W 10.4 mph
(W 17 kph)
- 10SM
04:35
Clear
30°F / -1°C 21°F / -6°C 69% 30.18 in
(1022 mb)
W 9.2 mph
(W 15 kph)
- 10SM
04:15
Clear
30°F / -1°C 23°F / -5°C 75% 30.18 in
(1022 mb)
W 8.1 mph
(W 13 kph)
- 10SM
03:55
Clear
30°F / -1°C 21°F / -6°C 69% 30.21 in
(1023 mb)
WNW 9.2 mph
(WNW 15 kph)
- 10SM
03:35
Clear
30°F / -1°C 23°F / -5°C 75% 30.21 in
(1023 mb)
WNW 9.2 mph
(WNW 15 kph)
- 10SM
03:15
Clear
30°F / -1°C 23°F / -5°C 75% 30.21 in
(1023 mb)
WNW 9.2 mph
(WNW 15 kph)
- 10SM
02:55
Clear
30°F / -1°C 23°F / -5°C 75% 30.21 in
(1023 mb)
WNW 9.2 mph
(WNW 15 kph)
- 10SM
02:35
Clear
32°F / 0°C 23°F / -5°C 69% 30.21 in
(1023 mb)
WNW 10.4 mph
(WNW 17 kph)
- 10SM
02:15
Clear
34°F / 1°C 25°F / -4°C 70% 30.21 in
(1023 mb)
NW 11.5 mph
(NW 19 kph)
- 10SM
01:55
Clear
34°F / 1°C 25°F / -4°C 70% 30.21 in
(1023 mb)
NW 11.5 mph
(NW 19 kph)
- 10SM
01:35
Clear
34°F / 1°C 25°F / -4°C 70% 30.21 in
(1023 mb)
NW 11.5 mph
(NW 19 kph)
- 10SM
01:15
Clear
34°F / 1°C 25°F / -4°C 70% 30.21 in
(1023 mb)
NW 11.5 mph
(NW 19 kph)
- 10SM
00:55
Clear
34°F / 1°C 25°F / -4°C 70% 30.21 in
(1023 mb)
NW 10.4 mph
(NW 17 kph)
- 10SM
00:35
Clear
34°F / 1°C 25°F / -4°C 70% 30.21 in
(1023 mb)
NW 11.5 mph
(NW 19 kph)
- 10SM
00:15
Clear
34°F / 1°C 25°F / -4°C 70% 30.21 in
(1023 mb)
NW 13.8 mph
(NW 22 kph)
- 10SM
Time Weather Temperature Dewpoint Humidity Pressure Winds Precip Visibility


Weather for websites

WeatherForYou.com, LLC is not responsible for any damages or problems caused by this service. Current weather conditions are obtained from the closest station including government and personal stations which may have varying degrees of accuracy. Weather forecasts are derived from the NOAA NDFD. Like all things, this site belongs to Jesus Christ... He just trusts me to maintain it. If you have any questions or comments email webmaster@weatherforyou.com

Copyright © 2015, WeatherForYou.com LLC. All rights reserved.